Location: Klein M�hlingen
(51.9472°N, 11.7453°E)
Time: 09:26:10
(UTC+00:00)

Cosmos 220 Rocket - Pass Details

Date: 09 April 2020
Orbit: 574 x 618 km, 74.0° (Epoch: 06 June)

Event Time Altitude Azimuth Distance (km) Brightness Sun altitude
Rises 19:12:24 0° 336° (NNW) 2,837 8.4 -11.0°
Reaches altitude 10° 19:14:39 10° 340° (NNW) 1,939 7.4 -11.3°
Maximum altitude 19:18:57 64° 62° (ENE) 671 4.1 -11.9°
Enters shadow 19:22:16 17° 142° (SE) 1,560 5.5 -12.4°
